Profile of Voice Seeker 104723

These are the public details of this voice seeker.

104723
Confidential (why?)
2015-06-18

23 projects

0 projects
24

98.21%
56 days ago
• A Voice123 Team member HAS NOT spoken over the phone to this voice-seeker about his/her projects, messages, or invitations.
• A Voice123 Team member HAS NOT communicated via email with this voice-seeker about his/her projects, messages, or invitations.
List of Projects Posted with Voice123's SmartCast Enabled:
ID Name Posted Deadline Auditions/
Proposals Received
% of Auditions/
Proposals
Opened
ZD3196518 Career Fair Radio 60 Spot 2017-07-14 19:16:03 GMT 2017-07-15 17:00:00 GMT 29 96.55%
ZD3043619 Renters Warehouse 10th Anniversary 2017-06-27 23:37:19 GMT 2017-06-28 21:00:00 GMT 27 100.00%
ZD1960743 AAA Movers 2017-02-10 23:45:51 GMT 2017-02-13 18:00:00 GMT 29 20.69%
ZD1960714 Sandvold Plan for tomorrow today 2017-02-10 23:45:01 GMT 2017-02-13 17:00:00 GMT 25 4.00%
ZD1915501 PuroClean Audition 2017-01-31 23:57:32 GMT 2017-02-01 18:00:00 GMT 19 100.00%
ZD1728302 Cell Phone Repair TV End Tag 2016-12-21 02:49:55 GMT 2016-12-22 21:00:00 GMT 10 90.00%
ZD1728161 Sandvold World is changing 2016-12-21 02:13:39 GMT 2016-12-27 22:00:00 GMT 4 100.00%
ZD1552437 Clinical Research Study 2016-11-11 08:52:41 GMT 2016-11-12 19:00:00 GMT 1 0.00%
ZD1173654 Bone Appetit 2016-08-19 16:50:46 GMT 2016-08-21 21:00:00 GMT 26 61.54%
ZD1082062 Clinical Research Institute 2016-07-29 22:11:12 GMT 2016-08-02 17:00:00 GMT 4 100.00%
ZD943054 Golfing Couple Financial Advising 2016-06-28 20:08:51 GMT 2016-06-30 17:00:00 GMT 10 90.00%
ZD780369 Sunesta Outdoor Oasis 2016-05-23 18:58:53 GMT 2016-05-25 20:00:00 GMT 20 100.00%
ZD724971 Kinetico Water Script 2016-05-11 00:23:00 GMT 2016-05-11 22:00:00 GMT 9 88.89%
ZD687410 Sandvold TV 2016-04-06 22:03:08 GMT 2016-04-07 20:00:00 GMT 17 76.47%
ZD674859 Sandvold Financial Group 2016-01-26 22:40:43 GMT 2016-01-27 20:00:00 GMT 15 100.00%
ZD599513 Inspire Sleep Apnea 2015-09-07 06:21:36 GMT 2015-09-15 17:00:00 GMT 62 100.00%
ZD599233 Sunesta Consumer Video 2015-09-03 23:28:14 GMT 2015-09-08 20:00:00 GMT 18 100.00%
ZD597909 Gutter Helmet 365 Video 30 sec 2015-08-22 16:48:58 GMT 2015-08-26 22:00:00 GMT 33 100.00%
ZD595719 Inspire Radio 20 sec Tag added to a 60 sec spot 2015-08-06 00:16:49 GMT 2015-08-07 01:00:00 GMT 40 97.50%
ZD594216 Main Voice Talent for United Credit Consultants 2015-07-25 00:22:57 GMT 2015-08-06 20:00:00 GMT 38 68.42%
ZD589740 Roofing Commercial 2015-06-26 04:41:53 GMT 2015-06-30 00:00:00 GMT 29 96.55%
ZD571887 Gutter Helmet 2015-06-18 23:55:57 GMT 2015-06-30 19:00:00 GMT 31 96.77%

Note: Although Voice123 tries to establish the legitimacy of all voice seekers, you are responsible for conducting your own investigation into any and all claims made by prospective voice seekers, agents and/or clients. You assume all liability for use of any information you find through Voice123, or any of its publications.